NUSAT-9 (ALICE) (46828 NORAD) Tracking and Keplerian Element Data

This shows tracking and keplerian element data for the satellite.

Feedback or suggestion? Click here.




ElementValue
Catalog46828
NameNUSAT-9 (ALICE)
Epoch Orbit1117
Epoch Day18.13661869
Epoch Year2021
RAAN94.8618
Inclination97.2622
Eccentricity0.0008126
Argument of Perigee358.6243
Mean Anonmoly88.588
Mean Motion15.31205819
Decay Rate1.368E-05
L11 46828U 20079B 21018.13661869 .00001368 00000-0 47843-4 0 9996
L22 46828 97.2622 94.8618 0008126 358.6243 88.5880 15.31205819 11174

Live tracking and technical data element details for NUSAT-9 (ALICE) (NORAD 46828). NUSAT-9 (ALICE) can be tracked NOW for your location showing map with azimuth and elevation plus other details from your city location.

Track the satellite on the map from your city or location and see movement details for azimuth, elevation, latitude, longitude, range, height, and movement on the map or in text.







IsCatalogInMostPopularTable: catalog: 46828, numindb: 35
Update: records affected: 1



GetName: 46828 NUSAT-9 (ALICE)

Hit Count: updated at: Mon, 18 Jan 2021 17:30:27 GMT